Wind_Speed
21 18 16 15 15 16 16 16 17 18 19 20 20 19 19 18 18 18 18 19 20 21 22 23 23 24 25 26 26 25 24 22 19 17 18 21 22 22 24 25 26 26 25 24 24 24 23 22 23 24 25 28 31 32 33 32 32 33 35 38 40 43 44 43 44 44 41 38 39 40 32 23 26 33 34 34 35 35 36 35 32 30 31 32 31
22 18 16 16 16 16 17 17 17 18 19 20 19 19 19 18 18 18 19 20 21 21 22 22 23 24 25 26 26 25 23 22 19 17 18 20 22 24 24 25 25 26 27 28 29 29 27 26 24 23 24 26 28 31 32 33 34 36 37 38 39 41 43 45 46 46 45 42 41 43 38 28 27 34 35 35 36 36 36 35 33 31 31 31 32
22 18 17 17 17 17 18 18 18 19 20 20 19 18 17 17 17 18 19 20 20 20 21 22 22 24 25 25 24 22 22 22 20 19 19 20 23 25 26 26 26 26 28 30 33 33 32 31 28 25 24 26 27 28 31 33 34 37 38 38 40 41 42 44 46 47 46 44 41 40 36 28 29 35 36 35 35 34 34 34 34 33 33 33 33
22 19 18 18 18 19 19 19 19 20 20 20 18 17 16 16 16 17 18 18 19 19 20 22 23 24 25 24 22 21 21 22 22 21 22 23 25 26 27 28 28 28 29 30 32 34 35 35 34 29 26 27 27 27 28 31 34 36 37 38 40 42 43 44 46 47 46 43 41 38 33 28 29 35 37 36 34 33 33 33 34 34 35 36 35
23 20 20 20 20 20 19 19 19 19 19 18 17 15 15 15 15 16 17 18 18 20 21 22 23 23 23 24 24 24 23 22 23 24 25 26 27 27 27 28 29 30 31 31 32 33 35 37 38 36 33 30 30 29 28 29 33 36 37 39 40 41 43 44 44 45 45 43 40 37 35 32 30 33 36 37 36 35 33 33 34 35 37 39 35
23 21 21 21 21 20 19 19 19 18 18 17 15 15 14 14 15 15 16 17 19 21 23 24 24 24 24 25 26 26 25 24 25 28 29 28 29 29 29 30 31 32 32 32 32 33 34 36 38 40 39 37 35 34 31 29 30 33 37 39 40 41 42 43 43 44 45 44 41 38 38 37 34 34 37 38 39 38 35 34 35 37 39 40 37
23 21 22 22 21 20 19 19 18 17 16 15 14 14 14 14 14 15 16 18 22 25 26 26 25 25 25 24 23 22 23 24 26 28 29 29 29 30 30 30 30 32 33 33 33 33 34 35 36 38 40 40 38 38 37 34 31 31 34 37 39 39 40 41 43 44 42 42 41 39 38 37 37 38 39 39 40 39 37 37 38 40 42 41 39
23 22 23 22 21 20 18 17 17 15 15 15 14 14 13 13 14 16 19 22 25 26 26 24 23 23 23 21 20 20 21 22 23 25 26 27 26 27 28 29 29 30 31 33 35 35 35 36 36 37 39 40 39 38 38 38 36 34 32 33 36 38 39 40 41 42 42 41 40 40 39 37 37 39 39 40 40 40 39 39 38 39 42 43 42
23 22 23 22 21 19 17 16 16 15 15 15 14 13 13 14 16 20 23 25 25 24 23 21 22 22 21 20 21 22 22 23 24 25 25 25 24 24 25 27 27 27 29 30 32 34 35 36 37 37 38 39 40 40 39 39 40 40 37 33 32 34 37 39 39 41 42 42 40 40 41 41 41 41 41 42 42 42 41 38 37 37 40 43 44
23 22 22 22 21 19 17 17 17 16 15 14 12 12 13 15 18 22 24 23 23 22 20 19 20 21 20 20 21 22 23 24 24 24 25 26 27 28 29 30 30 30 31 31 31 32 32 34 37 38 38 38 39 41 43 42 42 44 45 41 36 32 32 36 38 40 41 41 40 40 40 43 44 44 45 45 42 42 42 40 39 39 40 42 44
21 22 22 21 20 18 16 16 15 14 13 11 11 12 14 17 19 22 22 20 19 19 19 19 19 19 20 21 22 23 24 24 24 24 25 27 29 32 35 36 37 37 37 36 36 36 35 34 34 36 39 40 40 40 42 45 46 46 47 47 44 39 35 34 35 37 39 40 40 39 39 43 46 46 46 45 42 41 42 41 41 41 41 42 43
20 21 20 19 18 16 15 15 13 12 10 10 11 13 15 17 19 19 19 17 18 19 19 20 20 20 22 23 23 24 25 26 26 27 27 28 30 32 35 37 39 40 40 39 39 39 40 40 38 37 38 38 37 38 40 42 45 47 48 48 48 47 44 40 37 36 37 38 39 40 41 42 45 48 48 46 44 43 42 41 41 41 42 42 42
19 20 19 18 17 16 15 14 12 10 10 11 12 14 16 17 17 17 16 17 19 20 20 20 21 22 24 24 25 26 26 27 28 28 28 29 30 33 36 38 40 41 42 42 42 41 41 42 42 42 41 37 34 34 37 39 40 42 45 47 48 49 50 50 48 44 41 39 38 40 42 43 45 48 49 48 46 45 45 43 41 41 42 41 41
19 19 18 17 16 15 14 12 10 10 10 11 13 14 15 16 15 15 15 17 20 22 23 23 23 23 25 26 28 28 28 28 29 29 29 30 31 33 36 39 42 44 45 45 44 44 42 40 40 43 44 42 38 34 33 35 36 35 38 41 44 45 47 52 55 54 50 45 42 42 42 42 44 46 48 48 48 48 48 46 43 41 40 39 40
18 19 17 15 14 13 12 10 8 8 10 12 13 14 15 15 14 14 16 19 22 25 25 25 24 25 26 28 29 31 31 30 29 29 31 32 33 34 36 38 41 45 47 49 49 48 47 44 43 43 43 44 44 39 33 30 31 33 34 37 41 41 41 45 51 56 57 53 49 48 45 42 43 45 48 50 50 50 49 46 42 39 37 38 40
18 17 16 14 11 10 8 8 8 8 11 12 13 13 14 14 14 15 19 22 25 25 24 24 25 26 27 28 29 31 32 31 31 31 32 33 34 36 37 39 41 44 46 47 46 46 47 47 47 47 45 45 45 44 39 32 30 34 35 34 36 40 42 42 42 47 54 57 55 52 48 45 45 45 47 50 51 50 46 42 40 38 38 40 40
18 17 15 13 9 7 7 7 8 10 11 11 12 13 13 14 15 17 21 22 22 22 23 25 27 27 27 28 30 32 33 33 33 33 33 34 35 37 39 40 42 44 45 44 42 41 42 43 44 45 47 47 45 43 43 39 36 37 38 35 32 34 39 40 39 39 43 48 51 53 51 48 46 43 42 46 49 49 47 44 42 42 42 42 40
17 16 14 11 8 7 7 8 9 10 11 11 11 12 14 15 16 17 20 22 22 22 24 26 27 26 27 28 30 31 33 34 33 33 32 32 34 37 39 41 42 44 44 44 43 42 42 41 41 42 45 47 45 42 42 42 42 42 41 38 35 33 32 36 37 37 38 38 40 46 50 49 45 43 42 44 48 50 49 47 44 44 45 44 42
15 14 13 12 9 7 7 8 9 9 10 10 11 13 14 16 16 18 20 22 24 24 24 25 26 26 27 29 29 31 33 33 32 31 32 33 36 39 40 42 44 44 43 44 44 43 43 42 41 42 44 45 45 43 42 43 46 47 43 40 39 35 31 33 36 36 35 35 35 38 45 48 46 43 41 43 47 50 52 50 46 45 45 44 42
14 14 15 13 8 4 6 7 8 8 9 10 12 14 15 15 16 19 21 23 24 24 23 25 28 29 28 29 29 30 31 32 32 32 33 34 34 36 38 41 43 43 42 43 44 44 44 43 43 43 43 43 42 43 44 44 46 49 47 42 40 36 30 32 37 35 33 32 32 33 38 44 45 42 39 40 44 48 50 49 47 44 42 39 39
14 14 12 7 2 3 5 7 8 9 10 11 13 14 14 14 16 19 21 22 22 23 25 27 29 29 29 29 30 30 29 31 32 33 34 35 32 31 34 38 40 41 42 42 43 43 43 43 43 43 42 42 41 40 42 43 44 47 51 49 45 39 30 26 30 34 32 30 30 30 34 40 42 39 37 39 43 47 48 45 43 42 38 34 32
12 9 7 4 1 4 5 7 9 9 10 11 12 13 14 14 17 20 22 21 21 23 25 28 30 30 30 30 31 30 30 32 33 35 37 38 36 32 32 35 37 38 39 41 42 42 43 43 43 41 40 39 39 38 40 41 41 44 51 53 49 44 34 23 23 29 30 29 29 30 33 38 39 38 37 38 42 46 47 44 42 42 38 33 29
8 7 5 2 2 3 5 8 9 9 10 11 12 14 14 14 18 21 21 19 21 24 27 28 30 32 34 34 33 33 33 36 38 39 39 39 38 35 32 34 36 37 39 41 42 43 43 43 41 40 39 37 36 36 37 37 37 39 46 52 51 46 39 29 25 28 30 29 29 31 33 36 37 37 38 39 41 44 46 44 42 41 39 36 33
8 7 5 2 1 2 4 5 7 8 9 11 12 12 13 14 17 19 19 20 22 26 30 32 34 36 37 38 37 36 38 40 42 43 41 40 39 37 34 32 33 36 38 41 44 45 45 43 40 39 38 37 35 33 33 33 33 32 36 46 52 49 42 35 29 29 31 31 31 33 34 34 34 36 38 40 41 44 44 42 41 41 39 38 35
9 8 6 4 2 1 2 3 6 7 8 10 11 11 12 15 17 19 21 23 25 28 32 35 37 39 39 38 37 39 41 44 45 45 43 41 40 39 38 35 32 33 36 39 42 43 42 39 38 37 38 37 35 32 32 33 33 30 29 37 49 51 46 39 32 32 33 32 32 34 34 33 33 34 36 38 40 41 42 42 42 42 40 38 35
10 8 6 5 2 0 1 3 7 7 8 11 13 13 14 16 16 18 22 25 26 30 33 35 37 39 39 37 37 40 42 45 46 45 44 43 42 42 41 39 35 32 35 38 39 39 38 37 37 38 39 38 36 35 36 35 35 33 29 32 42 49 48 41 35 33 33 33 33 34 32 32 33 33 34 36 37 39 41 42 43 42 40 39 35
10 7 6 5 2 1 2 6 8 9 10 13 15 15 16 15 16 19 22 23 27 31 34 35 36 37 38 39 39 40 43 44 45 46 45 44 44 43 42 39 35 31 32 36 37 36 37 39 39 37 38 38 37 38 40 37 35 36 34 32 37 44 46 41 35 33 33 33 34 33 31 30 31 32 34 36 37 39 42 42 43 42 39 37 34
9 8 7 5 3 2 4 7 10 12 13 15 16 17 18 18 18 21 22 23 27 33 35 36 35 34 36 39 40 41 43 44 45 46 45 45 44 43 42 38 33 28 27 29 32 33 35 39 39 36 36 37 37 38 39 35 32 34 34 32 33 38 41 38 34 33 34 34 34 33 31 31 31 32 35 37 38 41 42 42 42 41 37 35 33
9 7 6 6 3 4 7 8 10 13 14 16 18 19 19 20 19 20 20 22 26 32 37 36 34 33 35 37 39 40 42 44 44 43 43 43 41 41 40 36 29 24 24 24 25 27 28 31 34 34 34 35 35 36 35 31 30 32 31 30 33 36 37 36 35 36 35 34 34 34 32 32 32 33 36 38 39 41 41 40 39 37 35 32 29
9 7 6 6 2 6 8 8 11 14 15 17 20 19 19 20 19 18 20 22 25 31 37 37 34 33 34 36 37 37 39 42 42 41 41 40 38 37 36 31 23 20 20 19 20 21 20 24 30 31 30 29 30 32 31 29 30 33 31 30 33 35 35 35 35 35 35 34 34 34 33 33 34 35 37 38 39 40 39 37 35 34 31 28 28
9 7 5 3 2 7 9 10 13 14 15 17 18 17 19 20 19 19 21 22 24 31 38 38 36 34 34 35 37 37 38 38 38 38 39 38 36 33 31 26 20 18 17 14 13 13 15 20 25 26 26 26 28 29 27 27 30 32 32 33 34 35 36 37 37 36 35 34 33 32 32 32 34 36 39 40 39 39 38 36 33 31 29 28 31
6 5 4 2 4 7 9 10 12 13 14 15 15 17 19 18 16 18 20 21 24 32 38 38 38 38 37 36 36 37 37 36 35 35 36 35 33 31 27 21 17 16 14 10 8 8 11 17 21 23 24 26 27 27 25 26 29 32 34 36 38 38 39 39 37 35 33 31 30 31 32 32 34 38 40 41 41 41 39 36 33 31 30 30 33
4 4 3 3 5 6 8 10 12 14 14 13 15 18 18 17 17 18 18 19 24 32 36 37 39 41 40 38 35 34 33 32 31 32 33 33 31 28 24 20 16 12 9 6 6 7 10 15 20 22 24 26 26 25 25 26 28 31 34 36 38 40 39 37 36 34 31 29 29 30 32 33 37 40 41 41 42 42 40 36 33 31 32 32 33
4 2 3 7 7 6 8 11 14 15 13 13 18 19 17 16 18 19 17 19 25 32 35 37 40 41 41 40 36 32 31 30 30 31 32 31 29 25 22 19 15 10 7 5 5 6 9 14 17 20 23 25 26 25 25 25 26 27 29 32 35 37 38 37 36 34 32 31 31 31 33 36 39 42 43 43 42 40 38 37 35 34 34 34 34
2 3 7 10 8 6 8 12 14 15 15 18 20 18 14 15 20 20 18 19 25 31 33 36 41 43 41 41 39 33 30 29 30 30 30 29 26 22 18 15 12 9 7 5 4 4 7 10 13 16 20 23 25 26 27 27 27 27 27 29 32 35 36 37 36 35 33 33 33 34 36 39 41 43 44 43 42 40 39 38 37 37 37 36 35
1 4 6 7 5 7 12 14 14 16 19 20 19 17 15 17 20 21 19 19 24 29 31 34 40 43 42 42 42 37 31 29 30 30 29 26 24 20 16 14 14 12 10 8 7 6 7 8 10 13 17 19 21 24 26 27 28 29 30 31 33 34 35 35 35 34 34 34 35 37 39 41 42 43 43 42 41 41 40 40 39 39 38 35 33
2 4 5 5 7 11 16 17 15 16 17 17 16 16 17 18 20 19 18 20 25 27 28 32 38 43 44 44 44 40 34 29 29 30 29 27 24 21 17 16 15 14 12 11 9 8 8 9 10 12 14 17 19 21 23 25 27 28 29 30 32 33 34 34 34 35 35 36 37 38 40 41 42 43 43 43 42 42 42 41 40 39 36 32 31
3 4 5 7 9 13 15 16 15 17 17 15 15 16 17 19 20 17 17 21 24 25 26 31 35 39 43 45 45 43 38 32 30 32 32 30 27 24 20 18 16 15 13 12 10 9 8 7 8 10 12 15 17 19 21 23 25 26 27 29 30 32 33 33 34 35 36 37 38 39 40 41 42 41 42 43 43 43 42 40 39 37 34 31 32
6 6 6 9 12 14 15 15 15 16 16 15 15 16 17 19 19 17 17 22 24 22 24 29 32 34 39 42 43 44 41 35 32 33 32 31 28 25 21 19 17 15 13 11 9 8 7 5 5 6 8 11 14 17 19 20 23 24 26 28 29 30 31 33 34 35 36 37 38 39 40 40 40 40 41 43 43 42 41 39 37 36 35 34 33
6 9 12 14 14 15 15 14 12 13 14 14 14 16 16 17 19 18 18 22 23 20 21 27 30 30 33 37 40 42 41 37 32 30 30 29 27 25 21 19 16 15 13 11 8 7 6 4 2 2 5 9 12 15 17 19 22 23 25 27 28 29 30 32 34 35 36 37 38 39 40 41 41 42 42 42 42 41 40 38 36 34 34 34 34
10 12 13 13 12 13 14 13 12 12 12 12 13 16 17 17 19 20 19 19 19 19 21 25 27 27 29 33 36 38 39 37 32 29 27 27 26 24 21 19 16 14 14 11 8 7 6 4 2 1 4 7 11 15 18 20 23 24 26 28 29 31 32 33 34 36 37 39 40 41 42 42 43 43 43 43 42 41 39 37 34 33 32 32 32
10 10 10 9 10 10 10 11 14 12 10 9 12 13 14 14 17 21 20 17 16 19 22 24 24 26 27 29 32 35 37 38 35 30 26 26 25 23 21 19 17 15 14 12 10 8 6 5 5 6 8 11 14 17 20 22 25 27 29 30 32 33 35 36 37 38 39 40 41 42 43 43 43 44 44 43 40 39 37 35 34 33 32 32 32
7 8 8 7 7 7 7 10 12 11 10 11 12 11 11 14 17 20 20 16 14 20 24 24 24 26 27 27 29 32 34 36 37 34 28 25 25 23 21 20 18 17 15 13 11 8 6 7 10 13 14 16 18 21 23 25 28 30 31 33 35 36 38 38 38 38 39 41 42 42 43 43 42 42 42 40 38 37 36 35 33 33 32 32 32
6 7 8 7 7 8 8 8 9 9 11 14 13 11 13 15 16 19 21 16 13 18 24 25 25 27 27 27 28 30 30 32 36 36 32 27 25 24 23 21 19 17 16 14 11 9 7 8 11 16 19 21 23 24 26 28 30 32 34 36 37 38 38 38 38 38 39 41 42 42 41 40 39 39 39 39 37 36 35 33 33 33 33 33 32
7 7 8 8 8 10 11 10 10 11 12 12 12 12 14 15 15 17 20 19 16 15 19 25 28 28 27 27 28 28 27 28 31 35 36 31 26 24 24 23 21 18 16 15 13 11 10 10 12 16 21 24 25 27 29 31 32 34 35 37 38 39 39 39 39 39 40 40 41 40 39 39 39 39 39 38 36 34 33 33 34 34 33 31 30
8 9 9 8 9 10 10 11 11 10 10 11 12 12 13 14 16 16 18 20 19 16 16 22 28 29 26 27 28 28 28 26 26 29 34 34 29 25 24 24 24 21 18 16 16 15 14 14 15 18 22 24 26 28 30 32 33 34 35 36 38 39 39 39 40 40 40 39 39 39 39 40 39 39 37 35 34 33 33 34 33 32 31 29 28
10 10 10 11 10 9 9 9 10 9 8 10 12 12 12 13 15 16 15 17 19 19 17 19 23 26 26 26 26 28 29 27 24 25 29 32 32 30 26 24 24 24 21 19 18 19 19 18 19 21 23 25 27 29 30 32 33 34 34 35 36 36 36 36 36 36 36 36 36 36 37 37 37 35 34 32 31 31 32 32 30 29 28 27 25
12 11 11 11 11 11 10 10 11 10 9 9 10 11 10 10 12 14 14 14 17 20 21 20 19 22 25 24 24 25 28 28 25 23 23 27 30 32 30 27 25 24 24 22 20 20 21 21 21 22 23 25 26 28 30 31 32 33 33 33 33 33 33 33 33 33 32 32 33 33 34 34 33 32 30 29 29 30 30 29 28 27 26 25 24
13 13 13 12 12 12 11 10 9 9 7 7 8 9 9 10 11 13 13 13 14 18 21 21 19 20 22 23 22 23 26 28 27 24 21 22 25 28 30 30 28 26 25 24 23 22 22 23 24 24 24 26 27 28 29 29 30 30 31 31 30 30 31 31 32 33 32 32 32 32 32 31 30 29 28 27 28 28 27 27 27 26 25 24 23
13 14 15 15 14 12 10 9 7 6 6 7 9 9 9 10 12 14 14 14 14 13 15 17 19 19 20 21 20 20 23 26 27 25 22 20 21 23 26 28 30 29 27 25 24 23 23 24 25 25 26 27 27 28 28 29 28 29 29 29 30 30 30 30 31 31 31 31 31 30 29 28 27 26 25 25 25 25 25 25 26 25 24 23 23
13 13 14 15 15 13 11 10 9 8 7 7 8 9 9 11 15 15 14 14 14 13 11 11 13 13 14 15 16 17 19 22 25 26 24 21 19 20 21 23 26 28 28 26 24 23 22 22 22 23 24 25 25 27 28 28 28 27 26 26 27 27 26 26 27 27 28 28 28 26 25 25 24 23 22 22 21 22 23 24 24 24 23 23 23
Wind_Direction
231 236 240 244 248 249 246 246 245 243 244 247 250 255 261 268 275 282 291 298 303 306 308 311 310 308 305 304 307 304 293 280 270 266 266 264 265 268 267 261 253 248 248 247 242 238 242 246 248 250 253 256 257 255 251 246 246 248 249 247 243 241 242 242 245 248 248 247 247 246 243 235 231 232 229 224 225 229 230 226 221 218 219 221 222
227 233 239 241 243 245 243 243 243 242 245 250 253 258 265 273 281 290 298 304 307 309 310 311 308 305 304 302 303 303 295 286 276 269 267 266 264 265 266 267 261 253 249 247 243 237 234 235 239 243 244 248 253 254 252 248 247 248 249 250 247 245 243 242 243 245 247 248 248 247 247 240 228 228 228 225 227 230 229 225 219 217 219 220 221
225 230 235 234 235 236 235 237 238 241 244 250 256 262 268 279 288 296 303 306 306 305 305 304 301 300 301 299 296 295 291 286 280 273 270 269 269 269 268 268 267 262 255 250 246 243 239 234 233 236 239 243 247 252 254 252 249 249 250 251 251 248 245 243 241 241 243 245 246 244 242 233 223 226 228 227 231 231 228 225 219 218 220 218 218
217 224 226 225 228 229 229 230 233 239 244 249 256 264 272 282 289 296 301 302 300 299 298 297 296 296 297 295 289 285 283 279 274 271 271 272 274 274 272 270 268 266 263 258 252 247 243 240 236 234 237 242 246 248 251 253 252 251 251 251 250 248 246 243 240 239 239 240 241 239 232 222 217 222 224 224 228 229 228 227 221 220 220 214 211
206 212 215 216 220 224 224 225 229 236 243 250 256 263 272 281 289 293 297 298 295 294 294 291 291 292 291 287 282 277 273 270 270 272 273 274 274 272 272 270 268 266 265 264 261 254 248 244 241 238 236 238 244 246 248 251 251 251 252 250 248 248 246 242 238 236 235 235 237 233 226 219 213 214 217 220 222 223 224 225 224 222 218 210 208
202 203 206 207 213 220 223 223 227 233 240 249 256 262 272 281 287 290 291 293 292 290 289 288 286 285 282 279 277 275 272 270 272 276 276 275 274 272 271 270 269 268 266 265 264 260 255 249 245 241 238 238 242 243 244 248 250 251 252 251 249 246 242 239 237 236 233 230 231 229 225 221 215 210 213 219 222 222 222 221 219 220 218 211 210
201 200 202 204 209 216 220 223 228 232 237 245 252 259 271 277 281 284 285 286 288 288 289 288 287 285 282 280 278 277 277 277 278 279 278 277 275 274 273 272 271 269 267 265 265 264 261 257 251 245 240 238 241 244 244 245 247 250 252 254 254 249 244 242 240 237 232 226 225 226 225 222 216 212 215 218 221 225 227 223 215 213 214 214 216
198 196 199 204 208 212 216 221 225 230 233 239 248 257 268 275 278 284 287 289 291 292 291 289 287 286 285 282 281 281 282 283 283 283 282 279 278 276 275 275 274 273 270 268 266 265 264 262 258 252 245 240 238 240 244 244 246 249 252 254 256 254 253 250 244 238 233 228 225 225 224 219 213 212 215 215 216 222 228 227 221 214 212 213 217
194 193 197 202 205 207 210 213 215 221 229 239 252 263 271 279 285 290 293 295 295 293 290 287 284 281 280 280 281 281 281 280 281 282 282 280 278 276 273 271 271 272 273 272 270 269 267 265 262 259 254 248 242 238 238 241 244 245 247 250 253 255 255 251 247 243 237 231 226 223 221 217 210 208 212 215 217 221 223 221 221 220 217 216 217
193 192 195 199 203 204 206 211 215 223 234 247 261 270 277 284 289 293 295 295 295 294 291 289 287 284 283 284 285 284 282 281 280 279 279 276 274 273 272 271 270 269 268 267 267 268 267 266 265 263 260 257 250 242 237 236 239 242 242 243 245 250 253 251 248 244 240 235 229 223 219 216 211 208 213 218 220 222 221 218 219 220 219 218 218
192 192 193 196 201 202 204 212 221 231 243 253 262 270 279 284 287 292 295 296 295 294 291 288 288 288 288 287 287 285 283 282 280 278 277 275 275 276 277 279 278 275 271 267 264 263 262 262 263 263 261 259 256 250 242 237 237 240 242 242 241 241 245 250 250 247 242 239 234 229 226 221 213 209 214 218 219 221 222 219 219 221 220 220 220
190 189 190 192 195 197 201 208 216 226 236 245 257 270 278 282 287 292 294 293 292 290 288 287 287 288 289 289 288 286 283 282 282 279 276 274 273 275 278 280 280 278 274 269 267 264 261 260 259 258 260 261 260 257 252 245 241 240 241 243 243 240 240 244 248 249 248 244 237 232 231 226 215 208 212 217 218 220 220 219 222 226 227 227 226
185 183 184 187 190 193 198 202 208 219 231 247 265 278 282 284 287 289 288 289 289 287 286 289 290 289 291 292 290 289 288 288 288 285 281 276 273 272 272 272 273 274 272 270 268 266 264 263 260 256 256 256 257 259 258 255 250 245 244 245 245 244 242 241 243 245 248 252 247 239 235 231 222 213 213 219 220 220 218 218 223 228 230 231 232
180 179 180 183 188 191 193 198 208 221 239 262 278 284 285 286 287 287 288 289 288 286 288 291 293 293 295 295 293 291 290 290 291 290 286 283 280 278 274 270 269 268 268 268 267 264 263 261 259 258 256 252 250 253 259 261 258 253 252 250 249 249 246 243 243 242 243 248 250 247 243 237 230 222 218 221 225 226 225 225 226 229 231 233 233
177 178 177 178 184 189 193 200 214 232 256 274 282 280 279 286 290 289 289 289 288 290 294 296 296 296 296 295 293 291 290 291 291 290 289 287 285 282 279 276 272 269 268 268 267 264 262 259 257 258 258 254 247 243 245 254 257 255 255 254 252 252 250 248 246 243 241 241 244 249 249 246 242 234 225 224 229 232 233 233 232 230 229 226 225
175 174 172 174 179 187 197 210 225 250 270 275 274 272 273 283 290 289 289 291 292 293 294 294 296 296 295 294 292 291 291 291 290 288 287 285 283 281 279 277 275 272 270 270 269 266 263 259 257 255 255 256 252 243 236 236 242 246 249 251 251 250 251 253 252 248 244 242 241 244 247 249 250 242 227 222 227 230 228 226 226 224 220 216 216
174 171 171 175 184 197 214 232 246 262 270 269 268 271 275 280 286 291 294 295 294 293 293 295 297 296 294 293 292 289 289 289 287 286 286 284 282 281 280 279 277 273 270 269 267 264 263 260 257 255 253 254 254 250 241 233 232 239 244 246 249 250 249 252 256 254 250 247 244 243 244 248 251 246 231 223 226 227 222 217 218 220 217 213 213
173 176 179 182 195 212 227 245 257 262 265 268 271 274 279 283 289 294 294 294 296 297 297 298 296 294 293 292 291 289 288 289 289 290 289 288 286 284 283 281 279 275 271 268 265 263 262 261 257 255 254 252 251 253 249 238 232 237 243 246 249 250 249 250 253 255 254 252 248 244 242 243 248 251 245 233 229 229 227 223 221 220 216 215 216
179 182 177 176 187 213 241 255 262 265 266 272 278 279 283 289 296 296 293 296 302 302 299 297 295 294 294 293 292 291 290 291 294 294 291 289 287 285 284 282 279 276 272 269 265 263 261 260 258 256 256 254 250 250 251 244 235 235 241 248 251 250 249 250 251 254 256 255 252 247 240 238 241 247 243 233 229 231 232 231 228 221 215 216 218
180 175 169 171 188 241 273 269 273 277 275 276 282 284 287 294 300 300 299 303 305 303 300 300 298 297 296 294 293 293 293 295 298 297 296 295 292 287 283 280 278 276 273 269 265 263 261 259 258 257 257 257 254 252 252 249 240 234 235 242 247 246 248 252 251 252 255 255 254 250 242 236 236 238 234 226 225 228 228 228 227 222 218 218 219
167 162 157 156 196 274 267 268 279 284 281 284 288 290 295 301 302 302 303 306 307 306 306 304 301 298 297 297 297 297 297 299 301 302 304 308 306 295 284 280 278 276 273 269 265 262 261 259 259 260 259 258 258 259 259 255 248 239 232 232 236 237 242 255 255 250 251 253 250 246 241 234 230 230 228 224 224 225 224 224 224 224 224 225 224
155 145 133 128 242 267 282 306 314 309 304 301 299 300 303 302 299 301 304 306 306 307 308 308 305 302 300 301 301 300 301 302 304 306 309 311 311 303 289 282 280 276 272 267 263 261 260 260 260 260 261 259 259 262 263 261 256 245 232 227 228 230 234 250 260 250 247 250 247 240 235 229 225 224 223 221 222 223 224 223 223 221 225 230 231
147 138 140 162 282 307 330 334 328 317 309 304 301 303 301 297 300 306 308 306 305 309 313 315 312 308 305 304 303 303 305 307 309 310 312 312 312 308 296 284 279 275 270 266 262 261 261 260 259 258 258 259 260 263 262 259 257 250 236 226 224 227 231 242 254 250 244 245 243 235 229 225 222 221 221 221 221 221 220 220 222 221 222 225 228
154 163 179 201 261 327 329 327 321 313 309 308 308 307 302 300 307 313 309 304 308 314 318 320 319 317 313 308 306 307 308 309 311 314 315 315 313 311 306 293 279 272 269 265 260 259 258 257 258 257 254 255 258 259 255 251 252 254 243 227 221 225 232 240 244 244 242 240 237 231 227 226 224 220 220 219 219 218 218 218 221 222 222 223 222
169 176 182 178 173 306 321 328 326 320 323 329 328 321 311 308 314 316 310 307 314 319 319 320 321 322 320 315 309 308 309 310 313 316 317 315 314 313 312 305 290 276 270 264 258 255 254 256 257 255 251 252 254 250 246 246 248 252 247 231 223 225 232 237 237 238 238 236 234 231 229 229 226 223 221 220 218 219 220 219 218 218 219 219 219
174 173 172 171 165 50 339 333 337 342 350 349 342 331 318 310 312 315 312 314 322 325 324 323 323 322 322 317 311 309 311 314 316 317 316 314 313 314 313 309 301 284 269 260 255 252 252 254 256 253 248 248 247 243 242 246 248 248 245 234 226 227 231 233 232 233 233 231 230 230 229 227 224 222 222 222 222 223 224 221 218 215 215 216 213
178 175 165 158 127 51 326 330 348 0 356 347 344 338 324 312 309 310 310 317 330 334 332 329 327 325 322 320 317 315 315 317 317 317 317 315 315 315 315 313 306 289 267 256 252 252 253 253 253 251 246 245 245 242 240 244 247 245 241 233 227 228 231 231 231 232 232 230 227 227 227 225 222 220 219 221 222 223 224 223 220 214 211 210 206
181 179 161 145 115 39 354 346 354 359 354 349 348 342 329 318 313 310 310 319 332 338 337 334 332 329 325 322 321 320 318 319 318 317 318 318 317 317 318 317 309 291 270 257 254 258 259 255 251 246 241 242 244 242 241 246 247 241 236 230 226 226 227 227 226 227 227 226 225 225 224 221 218 218 217 216 217 219 218 218 214 208 204 203 201
181 175 156 147 120 29 11 3 358 358 357 353 347 340 331 325 320 316 318 323 329 336 340 339 337 334 328 325 324 322 319 319 319 319 320 321 320 318 320 319 309 289 275 267 265 268 265 251 240 235 234 238 241 241 246 253 248 237 232 226 220 220 222 221 220 220 220 223 224 224 221 217 214 214 215 214 213 213 212 210 206 201 198 198 196
165 155 154 162 115 24 18 9 1 359 355 348 343 340 336 332 326 324 327 326 327 337 344 344 342 339 332 328 327 325 321 320 321 321 323 325 325 323 323 321 309 290 282 273 267 269 260 238 228 227 229 232 235 238 246 249 237 227 223 218 216 219 220 219 219 221 221 221 221 221 219 216 213 213 213 212 209 206 203 201 200 197 196 194 188
159 153 154 171 3 17 17 4 357 356 351 344 343 343 340 335 329 330 331 324 325 340 348 348 348 346 340 333 331 330 327 325 323 323 325 328 329 328 327 322 312 303 299 285 266 260 243 226 223 224 225 227 231 237 244 241 228 218 212 209 212 217 218 217 218 219 217 214 213 215 216 215 214 211 210 209 206 200 194 192 192 192 192 191 184
155 136 116 55 358 5 6 358 354 350 342 338 339 342 341 337 332 333 330 320 322 339 349 351 351 352 348 341 336 334 332 329 325 324 327 330 332 332 327 319 312 311 311 296 269 255 237 227 227 228 227 230 232 236 242 242 231 220 212 208 208 211 216 218 217 215 212 211 211 211 212 212 211 208 205 204 201 194 188 187 188 186 184 182 177
126 122 94 25 8 4 3 358 352 345 335 330 335 340 339 337 335 333 326 314 320 337 348 352 353 353 353 348 342 337 334 332 330 331 332 332 334 336 332 321 313 310 308 287 257 246 237 232 232 233 234 236 238 239 241 238 229 219 215 212 210 209 211 214 213 211 211 212 212 211 209 208 206 202 198 196 195 191 187 184 183 181 176 173 169
156 163 9 16 25 18 1 356 352 349 342 336 338 339 337 337 340 338 327 315 323 337 346 351 353 355 355 353 349 343 339 339 340 341 341 338 337 339 335 323 312 302 291 279 257 239 234 231 231 232 233 234 235 234 229 222 216 213 212 213 212 209 206 205 205 207 208 207 206 207 206 204 201 197 192 188 187 186 183 180 177 175 170 165 161
215 305 350 12 28 18 358 355 350 344 340 339 341 340 336 335 341 341 331 319 325 337 344 348 353 357 357 356 355 350 345 347 350 351 349 346 342 341 338 331 327 324 313 302 292 267 246 237 232 229 227 225 223 221 214 209 209 211 211 210 210 210 206 202 200 200 202 202 202 203 202 198 195 194 190 186 182 178 174 173 171 168 164 159 154
292 327 346 9 13 344 342 346 341 335 336 341 346 346 340 336 339 341 336 326 326 334 340 344 351 357 358 358 358 357 353 354 358 360 359 355 351 350 352 353 352 350 344 336 327 313 289 266 247 235 227 223 218 215 213 210 210 211 211 209 207 206 204 201 199 197 198 198 198 197 196 193 189 186 183 179 175 171 168 166 165 163 160 157 150
278 306 310 306 306 321 334 339 339 341 344 346 348 348 344 342 342 342 341 338 333 332 335 340 347 355 359 360 360 1 0 0 3 5 7 6 5 5 8 8 4 359 358 356 347 334 315 292 270 251 237 230 225 219 217 215 211 208 206 204 202 199 198 198 198 197 195 194 192 190 189 185 181 178 175 170 166 162 161 160 160 160 158 153 145
303 299 281 284 305 324 334 338 343 351 351 346 346 348 346 345 347 345 343 347 344 335 334 339 345 352 358 0 1 2 4 5 6 9 11 12 14 14 14 13 11 8 5 1 353 343 329 303 279 258 240 231 226 220 215 211 207 203 199 195 193 192 192 191 190 189 188 186 184 182 180 176 172 170 168 163 158 156 156 157 158 158 155 149 145
308 316 302 307 319 325 328 334 341 346 347 346 353 355 347 343 350 352 346 350 351 342 338 344 346 349 355 360 2 4 7 9 10 10 11 12 15 18 17 16 16 16 13 7 360 351 338 315 284 254 228 216 212 209 206 202 198 195 192 189 186 185 185 184 182 180 179 176 173 171 169 166 163 161 160 157 154 154 154 155 156 155 151 149 151
303 319 315 317 320 322 329 334 328 329 343 355 2 3 359 357 2 2 352 350 354 349 345 348 348 347 353 360 3 6 9 12 12 12 12 13 16 21 23 21 21 23 22 18 11 2 354 342 319 250 213 202 197 195 193 190 187 183 180 179 177 174 174 173 171 169 168 166 163 161 159 158 157 157 156 154 153 153 153 153 154 153 151 153 155
295 309 313 316 316 315 320 324 320 331 354 358 355 8 21 19 12 8 1 355 357 356 352 352 352 351 353 360 5 9 13 15 16 16 17 18 19 23 26 27 28 29 31 31 30 26 25 32 46 124 165 171 176 177 176 175 174 170 167 166 165 162 161 160 159 158 158 157 156 155 155 155 155 155 153 152 152 152 154 155 155 156 156 157 155
318 329 332 333 329 321 316 321 330 348 6 347 336 360 20 12 4 8 7 3 6 8 1 357 358 359 359 1 6 10 15 18 20 20 22 24 25 27 29 32 33 33 35 39 42 42 48 75 101 122 137 145 152 158 160 161 161 159 158 157 155 154 152 151 152 153 153 153 153 153 153 154 154 153 151 151 151 152 155 156 157 158 158 156 152
359 359 355 349 342 332 313 313 327 355 20 3 349 0 8 359 4 14 14 10 16 19 13 7 4 4 5 6 7 9 13 20 23 24 25 28 31 34 35 36 37 36 38 42 48 50 60 93 113 122 128 135 142 146 149 151 151 151 151 149 147 147 147 146 147 148 149 150 151 152 153 154 154 152 150 150 152 154 155 156 157 158 157 153 149
19 9 7 3 352 344 333 324 335 6 19 9 5 15 16 10 15 21 20 18 21 20 19 19 14 9 8 9 10 10 12 18 24 28 28 29 33 38 40 41 43 44 45 50 56 60 69 92 114 122 125 130 137 140 142 144 145 145 145 144 143 142 141 142 142 144 147 150 151 152 153 154 153 150 149 151 153 155 156 156 157 156 153 150 148
35 27 25 20 7 5 10 13 15 21 23 20 21 22 17 17 22 24 23 24 23 20 21 23 19 14 12 13 15 15 14 15 23 30 32 31 33 37 41 44 48 53 57 61 66 73 83 97 113 123 126 129 132 135 136 139 141 142 142 143 142 140 139 140 141 142 145 146 147 149 150 151 150 150 151 153 155 156 156 156 156 154 151 150 149
36 35 34 25 14 14 20 22 22 25 30 33 30 21 15 19 24 23 22 23 23 23 25 23 20 18 16 14 16 20 19 17 20 28 33 35 35 35 38 43 48 54 62 70 75 81 91 102 114 124 128 130 131 132 133 136 138 139 140 140 140 140 140 141 142 143 144 145 147 149 150 150 150 151 152 153 155 156 156 155 154 153 152 151 149
41 39 37 31 26 24 23 22 24 26 24 24 24 23 21 21 20 19 22 26 24 22 23 25 25 24 21 16 16 19 22 22 22 25 33 38 38 37 37 40 44 51 60 70 79 86 92 101 112 121 126 128 129 129 131 133 135 137 138 138 139 140 142 144 145 145 146 147 148 148 148 148 148 149 150 152 155 157 155 154 153 152 152 151 148
44 40 36 31 31 33 32 25 20 17 19 27 30 26 21 20 21 22 27 30 26 22 24 28 31 29 25 21 17 16 19 24 25 26 32 38 40 39 39 40 43 49 58 66 76 84 90 97 106 113 118 121 123 125 127 129 131 132 132 133 133 135 137 139 140 140 141 141 142 142 142 143 144 145 148 152 155 156 155 154 153 153 153 152 148
45 40 36 34 36 42 44 33 13 359 1 17 21 15 16 23 23 20 17 14 16 23 28 30 30 28 27 26 21 16 17 22 26 28 33 37 40 40 40 41 43 48 56 65 74 80 85 92 99 105 109 112 115 117 119 120 121 122 123 123 125 128 130 131 132 133 134 135 136 136 138 139 141 144 149 154 155 156 155 155 155 157 156 151 144
44 41 38 35 35 39 44 37 13 350 349 3 7 9 15 15 9 5 1 356 357 11 29 36 36 35 33 32 28 21 17 19 24 28 33 37 41 42 41 41 43 46 51 62 73 80 86 92 97 102 106 109 111 113 115 116 116 117 119 121 124 126 127 127 128 129 130 131 132 134 136 138 140 144 150 154 155 156 157 157 158 157 153 146 139
44 45 44 40 35 34 37 33 21 7 359 356 354 353 355 354 354 355 355 349 346 352 13 38 48 47 43 43 42 35 24 17 19 25 31 36 40 42 42 42 44 45 47 53 63 74 83 90 95 100 104 108 110 113 114 113 113 114 116 119 122 123 124 124 126 127 128 130 131 133 134 136 140 144 149 153 156 157 158 158 157 154 149 145 142
Height
1490 1492 1493 1494 1495 1496 1497 1497 1499 1500 1500 1501 1502 1503 1503 1503 1503 1503 1503 1503 1502 1502 1501 1500 1499 1498 1497 1496 1495 1495 1494 1493 1493 1493 1492 1491 1491 1491 1491 1491 1491 1491 1491 1492 1493 1494 1494 1495 1495 1497 1498 1497 1497 1497 1498 1499 1501 1502 1503 1503 1504 1506 1507 1507 1505 1505 1508 1509 1510 1514 1516 1518 1519 1517 1518 1519 1519 1519 1521 1523 1525 1525 1526 1528 1530
1487 1489 1490 1491 1492 1493 1494 1495 1496 1497 1498 1499 1500 1501 1501 1501 1501 1501 1500 1500 1499 1499 1498 1497 1497 1496 1495 1493 1492 1492 1491 1490 1490 1490 1489 1488 1488 1488 1487 1487 1487 1486 1487 1487 1488 1489 1490 1490 1490 1492 1493 1494 1494 1494 1495 1496 1497 1498 1499 1499 1500 1501 1502 1503 1503 1502 1504 1506 1507 1509 1511 1513 1514 1514 1514 1515 1516 1517 1519 1521 1523 1524 1524 1526 1528
1484 1486 1487 1489 1490 1491 1492 1493 1494 1495 1496 1497 1497 1498 1498 1498 1498 1498 1498 1497 1497 1496 1496 1495 1495 1494 1493 1491 1490 1489 1489 1488 1487 1486 1486 1485 1485 1484 1484 1484 1483 1482 1482 1482 1483 1485 1486 1486 1486 1487 1489 1489 1490 1491 1492 1493 1493 1493 1494 1495 1496 1497 1498 1499 1499 1499 1500 1502 1504 1505 1506 1507 1508 1509 1511 1512 1513 1515 1517 1519 1520 1521 1522 1524 1525
1482 1483 1484 1486 1487 1489 1490 1490 1492 1492 1493 1494 1495 1495 1496 1496 1496 1496 1495 1495 1495 1494 1494 1493 1492 1491 1490 1489 1488 1487 1487 1486 1484 1483 1483 1482 1481 1481 1481 1480 1480 1479 1478 1478 1479 1480 1481 1482 1483 1484 1485 1485 1486 1487 1488 1489 1489 1489 1490 1491 1491 1492 1493 1494 1494 1495 1496 1498 1499 1501 1503 1503 1503 1504 1506 1508 1510 1512 1514 1516 1517 1519 1520 1521 1523
1479 1480 1482 1483 1485 1486 1488 1488 1489 1490 1491 1492 1492 1493 1493 1493 1494 1493 1493 1493 1492 1492 1491 1491 1490 1489 1488 1487 1485 1484 1483 1482 1481 1480 1479 1479 1478 1478 1477 1477 1476 1475 1475 1474 1474 1475 1475 1476 1478 1480 1481 1481 1482 1483 1484 1485 1486 1486 1486 1487 1487 1487 1488 1489 1490 1491 1492 1494 1495 1497 1499 1500 1500 1500 1501 1503 1506 1508 1510 1512 1514 1515 1517 1518 1520
1476 1478 1479 1481 1482 1484 1485 1486 1487 1488 1489 1489 1490 1491 1491 1491 1491 1491 1491 1491 1490 1489 1489 1488 1487 1486 1485 1484 1482 1480 1479 1478 1477 1476 1476 1475 1475 1474 1473 1473 1472 1472 1471 1471 1470 1470 1470 1471 1473 1474 1476 1477 1478 1479 1480 1481 1482 1482 1482 1482 1483 1483 1483 1484 1485 1486 1488 1490 1491 1493 1494 1496 1497 1496 1497 1499 1501 1503 1505 1508 1509 1510 1513 1515 1517
1474 1476 1477 1478 1480 1481 1483 1484 1485 1486 1487 1487 1488 1489 1489 1489 1489 1489 1489 1488 1487 1486 1485 1484 1483 1482 1481 1479 1478 1477 1475 1474 1474 1473 1472 1472 1471 1471 1470 1469 1469 1468 1467 1467 1466 1466 1466 1466 1467 1468 1469 1471 1473 1474 1476 1477 1478 1478 1478 1479 1479 1479 1479 1480 1481 1482 1483 1486 1487 1488 1489 1491 1492 1492 1492 1495 1498 1500 1501 1501 1502 1504 1508 1511 1514
1471 1473 1475 1476 1478 1479 1481 1482 1483 1484 1485 1485 1486 1486 1487 1487 1487 1486 1486 1485 1484 1483 1482 1481 1480 1479 1477 1476 1475 1474 1473 1472 1471 1470 1469 1469 1468 1467 1467 1466 1465 1464 1464 1463 1463 1462 1461 1461 1461 1462 1463 1464 1467 1469 1471 1473 1474 1474 1475 1476 1475 1475 1475 1476 1477 1478 1480 1481 1483 1483 1484 1487 1488 1488 1488 1490 1492 1494 1495 1496 1498 1500 1503 1506 1509
1468 1470 1472 1474 1475 1477 1479 1480 1481 1482 1483 1483 1484 1484 1484 1484 1484 1484 1483 1482 1481 1479 1478 1477 1476 1475 1474 1473 1472 1471 1470 1469 1468 1468 1467 1466 1466 1465 1464 1463 1462 1461 1460 1459 1459 1458 1457 1457 1456 1456 1457 1458 1460 1462 1464 1467 1469 1469 1470 1472 1472 1472 1472 1472 1473 1474 1475 1476 1478 1479 1479 1481 1483 1482 1482 1483 1485 1488 1490 1493 1496 1498 1500 1502 1504
1466 1468 1470 1471 1473 1476 1477 1479 1479 1480 1481 1481 1482 1482 1482 1482 1481 1481 1480 1479 1478 1476 1475 1474 1473 1472 1470 1469 1469 1468 1467 1466 1465 1465 1464 1464 1463 1462 1460 1459 1458 1458 1457 1456 1455 1454 1453 1453 1451 1451 1452 1452 1454 1456 1458 1460 1462 1463 1465 1467 1468 1469 1468 1468 1468 1469 1470 1471 1472 1474 1475 1476 1476 1476 1476 1479 1482 1485 1486 1489 1491 1493 1495 1497 1499
1464 1466 1467 1469 1472 1474 1476 1477 1477 1478 1479 1479 1480 1480 1480 1479 1478 1478 1476 1476 1475 1474 1473 1472 1470 1469 1468 1466 1465 1464 1463 1463 1462 1462 1461 1460 1460 1458 1456 1455 1454 1453 1452 1451 1450 1449 1449 1448 1447 1447 1447 1446 1447 1449 1451 1453 1455 1457 1459 1462 1463 1464 1465 1464 1465 1466 1467 1467 1467 1468 1470 1470 1470 1471 1474 1476 1479 1481 1482 1484 1486 1487 1489 1491 1493
1462 1464 1466 1468 1470 1472 1474 1475 1475 1476 1477 1477 1478 1478 1477 1477 1476 1475 1474 1473 1472 1471 1470 1469 1468 1466 1465 1463 1462 1460 1459 1459 1458 1458 1457 1456 1456 1454 1452 1450 1448 1447 1446 1446 1445 1444 1443 1443 1442 1442 1442 1442 1443 1444 1444 1446 1449 1451 1453 1455 1457 1459 1460 1460 1461 1462 1463 1464 1464 1464 1464 1466 1467 1467 1469 1472 1474 1476 1478 1480 1481 1483 1484 1486 1487
1461 1463 1464 1467 1468 1470 1472 1473 1474 1475 1475 1476 1476 1475 1475 1474 1473 1472 1472 1471 1470 1468 1467 1466 1465 1463 1462 1460 1458 1457 1455 1454 1453 1453 1452 1451 1451 1449 1447 1445 1443 1441 1440 1440 1439 1438 1438 1437 1436 1436 1436 1437 1438 1439 1439 1441 1443 1445 1447 1449 1451 1453 1455 1456 1456 1457 1458 1460 1461 1460 1460 1461 1462 1463 1465 1467 1470 1472 1473 1474 1476 1478 1480 1481 1483
1460 1461 1463 1465 1467 1469 1470 1471 1473 1474 1474 1474 1474 1473 1472 1472 1471 1470 1469 1468 1467 1465 1464 1463 1462 1460 1459 1457 1455 1453 1452 1450 1449 1448 1447 1446 1445 1444 1442 1439 1437 1435 1434 1433 1433 1432 1432 1432 1430 1429 1430 1432 1433 1434 1436 1437 1438 1440 1442 1443 1444 1446 1448 1449 1450 1452 1453 1455 1456 1456 1457 1457 1457 1459 1463 1464 1464 1464 1465 1467 1470 1473 1476 1478 1481
1459 1460 1462 1464 1466 1468 1469 1470 1471 1472 1472 1472 1471 1471 1470 1469 1469 1468 1467 1465 1463 1462 1461 1460 1459 1457 1456 1454 1452 1449 1448 1447 1445 1444 1442 1441 1439 1438 1436 1433 1431 1428 1427 1426 1426 1425 1425 1426 1424 1423 1424 1424 1426 1429 1431 1433 1435 1437 1438 1438 1439 1440 1441 1442 1443 1445 1447 1449 1450 1451 1453 1455 1455 1456 1458 1459 1459 1459 1461 1464 1467 1470 1473 1476 1478
1458 1459 1461 1463 1465 1467 1469 1470 1470 1470 1470 1470 1469 1469 1468 1468 1468 1467 1465 1462 1460 1459 1458 1457 1456 1454 1453 1451 1448 1446 1444 1443 1441 1439 1437 1436 1434 1432 1429 1427 1425 1422 1420 1419 1419 1418 1418 1418 1417 1417 1417 1417 1419 1422 1425 1428 1429 1430 1431 1433 1434 1434 1435 1435 1437 1438 1440 1442 1445 1446 1448 1451 1452 1452 1453 1455 1457 1458 1461 1464 1467 1468 1471 1473 1474
1456 1458 1460 1462 1464 1466 1468 1469 1469 1469 1469 1468 1468 1468 1467 1466 1466 1465 1462 1460 1458 1457 1456 1454 1453 1451 1449 1447 1445 1442 1440 1438 1437 1435 1433 1431 1429 1426 1423 1421 1419 1416 1414 1414 1413 1412 1411 1411 1411 1411 1411 1411 1412 1416 1420 1423 1423 1423 1424 1426 1427 1429 1430 1430 1431 1432 1434 1437 1439 1441 1443 1446 1447 1449 1452 1453 1455 1456 1458 1459 1461 1463 1465 1467 1469
1455 1456 1458 1460 1463 1465 1466 1467 1467 1467 1467 1467 1466 1466 1465 1465 1463 1462 1460 1457 1455 1455 1453 1451 1450 1448 1446 1444 1441 1438 1435 1433 1432 1430 1428 1426 1424 1421 1418 1415 1412 1410 1408 1408 1407 1406 1405 1405 1405 1405 1404 1405 1407 1410 1413 1417 1418 1417 1418 1420 1421 1422 1424 1426 1426 1427 1428 1431 1433 1435 1437 1440 1443 1445 1448 1450 1451 1452 1453 1454 1455 1457 1459 1461 1464
1454 1454 1455 1458 1461 1463 1465 1465 1465 1465 1465 1465 1464 1464 1463 1462 1461 1459 1457 1455 1453 1452 1451 1449 1447 1444 1442 1440 1437 1434 1430 1428 1427 1425 1423 1421 1419 1415 1413 1409 1406 1404 1403 1402 1400 1400 1399 1398 1399 1399 1398 1399 1402 1404 1406 1410 1411 1411 1413 1415 1415 1417 1420 1421 1421 1422 1423 1426 1427 1429 1431 1434 1437 1440 1443 1445 1446 1446 1448 1449 1450 1451 1452 1455 1459
1452 1452 1453 1455 1458 1461 1463 1463 1463 1463 1463 1462 1462 1461 1461 1460 1459 1456 1454 1452 1451 1450 1448 1446 1443 1441 1438 1436 1433 1430 1426 1423 1422 1420 1418 1415 1413 1410 1407 1403 1400 1398 1397 1396 1394 1393 1392 1392 1391 1392 1392 1394 1396 1398 1400 1402 1403 1405 1407 1409 1409 1413 1416 1417 1417 1418 1419 1421 1422 1424 1426 1428 1432 1435 1438 1441 1441 1442 1445 1446 1447 1448 1449 1451 1454
1449 1451 1452 1454 1458 1460 1461 1461 1461 1460 1460 1460 1459 1459 1458 1458 1457 1454 1452 1450 1449 1447 1445 1443 1440 1437 1434 1432 1428 1425 1423 1420 1417 1415 1412 1409 1407 1404 1400 1397 1394 1393 1391 1390 1388 1387 1386 1386 1385 1386 1387 1388 1390 1392 1393 1395 1396 1398 1400 1401 1403 1408 1412 1413 1412 1413 1415 1417 1418 1420 1422 1424 1427 1430 1433 1436 1438 1440 1442 1444 1447 1448 1448 1449 1451
1449 1451 1453 1455 1457 1459 1459 1458 1458 1458 1458 1457 1457 1457 1456 1455 1454 1452 1450 1449 1447 1445 1443 1440 1437 1433 1430 1428 1424 1421 1418 1416 1412 1409 1406 1403 1400 1398 1394 1391 1390 1388 1386 1384 1382 1381 1380 1380 1380 1380 1382 1382 1384 1385 1386 1388 1389 1390 1391 1394 1399 1404 1407 1409 1409 1409 1411 1413 1415 1416 1418 1419 1422 1425 1428 1431 1433 1436 1439 1441 1444 1446 1447 1448 1450
1450 1452 1453 1455 1457 1457 1457 1457 1457 1457 1456 1456 1455 1455 1454 1453 1451 1449 1448 1447 1444 1442 1440 1437 1434 1430 1427 1423 1420 1417 1414 1410 1407 1404 1401 1397 1394 1392 1389 1386 1385 1383 1380 1378 1376 1376 1375 1374 1374 1375 1376 1377 1378 1380 1380 1381 1382 1382 1383 1388 1394 1398 1402 1404 1406 1406 1407 1409 1411 1413 1415 1416 1418 1421 1423 1426 1429 1432 1435 1438 1441 1442 1444 1446 1448
1451 1452 1454 1455 1455 1456 1456 1456 1457 1456 1456 1455 1454 1453 1452 1451 1449 1448 1446 1445 1443 1440 1437 1434 1431 1427 1423 1419 1415 1412 1408 1405 1401 1398 1395 1392 1388 1385 1383 1380 1379 1377 1374 1372 1370 1370 1369 1368 1369 1370 1370 1371 1372 1374 1374 1375 1375 1376 1379 1384 1389 1393 1396 1399 1401 1401 1403 1405 1407 1410 1412 1414 1416 1417 1419 1422 1426 1429 1432 1435 1437 1439 1441 1443 1445
1452 1452 1453 1454 1454 1455 1456 1456 1456 1455 1454 1453 1452 1451 1450 1449 1447 1446 1444 1443 1441 1438 1435 1432 1428 1423 1419 1414 1410 1407 1403 1399 1396 1392 1389 1386 1382 1379 1376 1374 1372 1370 1368 1365 1363 1363 1363 1363 1363 1364 1365 1365 1367 1368 1369 1369 1371 1372 1375 1379 1384 1387 1390 1393 1396 1397 1398 1401 1404 1406 1409 1412 1414 1416 1418 1420 1423 1426 1428 1431 1433 1435 1438 1441 1444
1451 1452 1453 1453 1453 1454 1455 1455 1455 1453 1452 1451 1450 1450 1449 1447 1446 1444 1442 1441 1439 1437 1433 1429 1425 1420 1416 1411 1407 1403 1399 1395 1390 1386 1383 1380 1376 1373 1370 1366 1364 1362 1360 1357 1356 1356 1356 1357 1357 1358 1359 1360 1362 1363 1364 1365 1367 1369 1371 1374 1378 1380 1384 1388 1391 1392 1394 1396 1400 1403 1406 1408 1411 1414 1416 1419 1421 1423 1425 1427 1429 1432 1435 1438 1441
1450 1451 1452 1452 1452 1453 1454 1454 1453 1452 1451 1450 1449 1448 1447 1445 1444 1442 1440 1439 1437 1434 1430 1426 1422 1418 1413 1408 1404 1399 1395 1391 1386 1382 1378 1374 1370 1367 1363 1359 1356 1353 1351 1350 1350 1350 1350 1350 1351 1353 1354 1356 1357 1358 1359 1360 1362 1364 1366 1369 1372 1375 1379 1383 1386 1388 1390 1393 1396 1400 1403 1405 1408 1411 1413 1416 1418 1420 1422 1424 1426 1429 1432 1436 1439
1449 1450 1450 1451 1452 1453 1453 1453 1452 1451 1450 1449 1448 1447 1445 1443 1441 1439 1438 1436 1434 1432 1428 1424 1420 1416 1411 1406 1401 1395 1391 1387 1383 1378 1374 1369 1365 1360 1356 1352 1349 1346 1345 1344 1345 1345 1344 1344 1345 1347 1349 1351 1352 1353 1354 1355 1357 1358 1361 1364 1367 1371 1375 1380 1383 1384 1386 1389 1393 1396 1399 1402 1405 1408 1410 1412 1414 1416 1418 1420 1423 1426 1429 1433 1436
1448 1449 1449 1451 1452 1452 1452 1452 1450 1449 1449 1448 1447 1445 1444 1442 1440 1438 1436 1435 1433 1431 1427 1423 1418 1414 1409 1404 1399 1393 1387 1383 1379 1375 1370 1365 1361 1356 1351 1347 1344 1341 1340 1340 1340 1339 1338 1337 1339 1341 1344 1346 1348 1349 1350 1351 1352 1354 1357 1360 1363 1367 1371 1375 1378 1380 1382 1386 1389 1392 1395 1398 1401 1404 1406 1409 1411 1413 1415 1417 1420 1423 1427 1431 1434
1447 1448 1449 1451 1451 1451 1451 1450 1449 1448 1448 1447 1445 1444 1442 1440 1438 1437 1435 1434 1432 1430 1426 1421 1417 1412 1407 1403 1398 1393 1387 1380 1376 1371 1366 1362 1357 1353 1348 1344 1341 1338 1336 1335 1335 1333 1332 1332 1334 1337 1340 1343 1345 1347 1348 1348 1349 1351 1354 1357 1360 1364 1368 1371 1374 1377 1380 1383 1385 1388 1391 1394 1397 1400 1403 1405 1407 1410 1413 1416 1419 1421 1424 1429 1433
1446 1448 1449 1450 1450 1449 1449 1448 1448 1447 1447 1446 1445 1443 1441 1439 1436 1435 1434 1432 1431 1429 1425 1420 1416 1411 1406 1401 1396 1391 1385 1379 1374 1369 1364 1359 1354 1349 1346 1342 1339 1335 1332 1331 1330 1329 1329 1330 1332 1335 1338 1341 1343 1345 1347 1347 1348 1349 1351 1354 1358 1361 1364 1368 1371 1374 1377 1380 1382 1385 1388 1391 1394 1397 1400 1402 1404 1407 1411 1415 1418 1419 1423 1428 1432
1447 1448 1449 1449 1449 1448 1448 1447 1447 1446 1445 1445 1444 1443 1441 1439 1437 1435 1433 1431 1429 1427 1424 1419 1415 1410 1406 1400 1394 1388 1383 1378 1373 1367 1362 1357 1352 1347 1344 1341 1338 1334 1331 1329 1328 1328 1329 1330 1332 1334 1337 1339 1340 1342 1344 1345 1347 1348 1349 1351 1354 1358 1361 1365 1368 1372 1375 1377 1380 1383 1386 1389 1392 1395 1397 1399 1401 1405 1409 1413 1415 1418 1423 1429 1433
1447 1447 1448 1448 1448 1448 1447 1446 1446 1445 1444 1443 1442 1441 1440 1439 1437 1435 1433 1431 1429 1427 1423 1419 1414 1409 1404 1399 1393 1388 1382 1377 1371 1366 1360 1355 1350 1346 1343 1340 1338 1335 1332 1330 1329 1329 1330 1331 1333 1334 1336 1337 1339 1340 1342 1343 1344 1346 1348 1350 1353 1356 1359 1363 1367 1370 1373 1375 1378 1381 1384 1387 1390 1393 1395 1398 1400 1404 1407 1410 1414 1419 1425 1430 1433
1447 1447 1448 1447 1447 1447 1446 1446 1446 1445 1444 1443 1442 1440 1439 1438 1436 1435 1433 1430 1428 1425 1422 1418 1413 1408 1403 1397 1392 1387 1381 1376 1370 1364 1359 1354 1349 1346 1343 1340 1338 1336 1334 1332 1331 1330 1331 1332 1333 1334 1336 1337 1338 1339 1340 1342 1343 1345 1347 1349 1352 1355 1358 1361 1364 1367 1370 1373 1376 1379 1382 1385 1388 1391 1394 1396 1400 1403 1406 1409 1414 1420 1425 1429 1432
1446 1447 1447 1446 1446 1446 1446 1446 1446 1444 1443 1442 1441 1440 1439 1437 1436 1434 1432 1429 1426 1423 1420 1416 1412 1407 1402 1397 1391 1386 1381 1375 1370 1364 1359 1354 1349 1346 1343 1340 1338 1336 1335 1334 1332 1332 1332 1333 1334 1335 1336 1337 1338 1339 1340 1341 1343 1344 1346 1348 1351 1353 1356 1359 1361 1364 1367 1370 1374 1377 1380 1383 1387 1390 1392 1395 1398 1402 1405 1410 1415 1420 1424 1428 1429
1446 1446 1446 1446 1446 1445 1445 1445 1445 1444 1443 1442 1440 1439 1438 1437 1435 1433 1431 1429 1426 1423 1419 1416 1411 1407 1402 1397 1391 1385 1380 1375 1370 1364 1359 1355 1350 1346 1343 1341 1339 1337 1336 1335 1334 1334 1334 1334 1334 1335 1336 1337 1338 1339 1340 1341 1343 1344 1345 1347 1349 1351 1354 1357 1360 1363 1366 1369 1372 1376 1379 1383 1387 1390 1393 1396 1399 1402 1406 1411 1417 1421 1425 1426 1425
1445 1446 1445 1445 1445 1444 1444 1444 1444 1443 1442 1441 1440 1439 1438 1436 1434 1433 1431 1428 1425 1422 1419 1415 1411 1406 1401 1395 1390 1385 1380 1375 1370 1365 1361 1356 1352 1348 1345 1342 1340 1339 1337 1336 1336 1335 1335 1335 1335 1335 1336 1337 1338 1339 1340 1341 1342 1344 1346 1347 1349 1351 1353 1356 1359 1362 1365 1368 1372 1376 1379 1383 1387 1391 1394 1397 1400 1404 1408 1413 1418 1422 1424 1423 1422
1444 1444 1444 1444 1443 1443 1444 1444 1443 1442 1442 1441 1440 1439 1438 1436 1434 1432 1430 1428 1425 1422 1419 1415 1411 1406 1400 1395 1391 1385 1380 1375 1370 1366 1361 1357 1353 1349 1347 1344 1342 1341 1339 1338 1337 1336 1336 1336 1335 1336 1336 1337 1338 1339 1340 1341 1343 1344 1346 1348 1350 1352 1354 1356 1359 1362 1365 1368 1372 1376 1380 1384 1389 1393 1396 1399 1402 1406 1410 1415 1419 1422 1423 1421 1421
1443 1443 1443 1443 1443 1443 1443 1443 1443 1442 1442 1441 1440 1438 1437 1435 1433 1432 1430 1428 1425 1422 1419 1415 1412 1408 1403 1398 1392 1386 1380 1375 1370 1366 1363 1359 1355 1352 1350 1347 1345 1344 1342 1341 1340 1338 1338 1337 1337 1336 1336 1337 1338 1339 1340 1342 1343 1345 1347 1349 1351 1353 1355 1358 1360 1364 1366 1370 1374 1378 1382 1386 1391 1395 1399 1402 1404 1408 1412 1417 1421 1423 1421 1420 1422
1443 1443 1442 1442 1442 1442 1442 1443 1442 1442 1441 1441 1440 1438 1437 1435 1433 1432 1430 1428 1425 1422 1419 1416 1413 1409 1405 1400 1395 1389 1383 1378 1374 1370 1366 1362 1359 1356 1353 1351 1349 1347 1345 1344 1342 1341 1340 1339 1338 1337 1337 1338 1339 1340 1341 1343 1345 1347 1349 1351 1353 1355 1357 1360 1363 1366 1369 1372 1376 1381 1385 1388 1392 1396 1400 1404 1407 1410 1414 1419 1423 1424 1423 1423 1425
1442 1442 1442 1442 1442 1442 1442 1442 1442 1441 1441 1440 1439 1438 1436 1434 1434 1432 1430 1427 1424 1422 1419 1417 1414 1411 1407 1403 1399 1394 1388 1383 1378 1375 1371 1367 1363 1360 1357 1355 1353 1350 1348 1347 1345 1344 1342 1341 1340 1339 1339 1340 1341 1342 1343 1345 1347 1349 1351 1353 1355 1357 1360 1363 1366 1369 1372 1375 1378 1382 1386 1390 1394 1397 1401 1404 1407 1410 1414 1419 1423 1424 1425 1426 1428
1441 1442 1442 1442 1442 1442 1442 1441 1441 1441 1440 1440 1439 1437 1435 1434 1433 1431 1428 1426 1424 1422 1419 1417 1414 1412 1409 1405 1401 1397 1392 1387 1383 1379 1375 1371 1368 1365 1362 1359 1357 1354 1352 1350 1349 1347 1346 1345 1344 1343 1343 1343 1344 1345 1346 1348 1350 1351 1353 1355 1358 1361 1363 1366 1368 1371 1374 1377 1381 1384 1387 1391 1396 1399 1401 1404 1408 1412 1416 1420 1423 1426 1428 1430 1432
1442 1442 1442 1442 1442 1442 1441 1441 1441 1440 1439 1439 1438 1437 1435 1434 1433 1431 1428 1426 1425 1422 1420 1417 1415 1412 1410 1406 1403 1399 1395 1391 1387 1382 1379 1375 1372 1369 1366 1364 1361 1359 1357 1355 1353 1352 1351 1350 1348 1347 1347 1347 1347 1348 1350 1351 1353 1355 1357 1359 1362 1364 1366 1368 1371 1374 1376 1380 1384 1387 1390 1394 1398 1401 1403 1406 1411 1415 1419 1423 1426 1429 1431 1433 1435
1442 1443 1443 1442 1442 1441 1441 1441 1440 1439 1439 1438 1438 1437 1436 1435 1434 1431 1429 1427 1425 1422 1420 1417 1415 1413 1410 1408 1405 1401 1398 1394 1390 1387 1383 1380 1376 1373 1371 1368 1365 1363 1361 1359 1358 1357 1356 1355 1353 1352 1352 1351 1352 1352 1354 1355 1357 1359 1361 1363 1365 1367 1370 1372 1375 1377 1380 1383 1386 1389 1393 1397 1401 1404 1407 1410 1414 1419 1423 1426 1429 1431 1433 1435 1437
1443 1443 1443 1442 1442 1441 1441 1440 1440 1439 1439 1439 1438 1437 1436 1435 1434 1432 1430 1428 1425 1423 1420 1418 1416 1414 1411 1409 1406 1404 1400 1398 1394 1391 1387 1384 1381 1378 1376 1373 1370 1368 1366 1364 1363 1362 1361 1360 1359 1358 1357 1357 1357 1358 1359 1360 1362 1364 1366 1367 1369 1371 1374 1377 1379 1381 1384 1387 1389 1392 1397 1400 1403 1407 1411 1415 1419 1423 1426 1429 1431 1433 1435 1437 1439
1443 1443 1443 1443 1442 1442 1441 1441 1440 1440 1440 1439 1439 1438 1437 1436 1434 1433 1431 1429 1427 1425 1422 1419 1417 1415 1413 1410 1408 1406 1403 1401 1398 1395 1392 1389 1386 1383 1380 1378 1376 1373 1371 1370 1368 1367 1366 1365 1364 1363 1363 1363 1363 1364 1365 1366 1368 1369 1371 1373 1374 1376 1379 1381 1383 1386 1389 1392 1394 1397 1400 1403 1407 1411 1415 1419 1423 1426 1429 1432 1434 1436 1438 1439 1441
1443 1443 1443 1443 1443 1442 1441 1441 1441 1441 1440 1439 1439 1438 1437 1436 1434 1433 1432 1430 1428 1426 1424 1421 1418 1416 1415 1413 1410 1408 1406 1403 1401 1399 1396 1393 1391 1388 1385 1383 1381 1379 1377 1375 1374 1372 1371 1370 1370 1369 1369 1369 1370 1370 1371 1372 1374 1376 1377 1379 1381 1383 1385 1387 1390 1392 1395 1397 1399 1402 1404 1407 1411 1415 1419 1422 1426 1429 1432 1434 1436 1438 1440 1442 1443
1444 1444 1444 1443 1442 1442 1442 1441 1441 1440 1439 1439 1438 1437 1436 1435 1434 1433 1432 1431 1429 1427 1426 1424 1421 1418 1416 1415 1413 1410 1409 1406 1404 1402 1400 1397 1395 1393 1391 1388 1386 1384 1382 1381 1379 1378 1377 1376 1376 1376 1376 1376 1376 1377 1378 1379 1381 1382 1384 1386 1387 1389 1390 1393 1395 1397 1400 1402 1404 1407 1409 1413 1416 1419 1422 1426 1429 1432 1435 1437 1439 1441 1443 1444 1445
1445 1445 1444 1443 1442 1442 1441 1441 1440 1439 1439 1438 1438 1437 1436 1436 1435 1433 1432 1431 1430 1428 1427 1426 1424 1421 1419 1417 1415 1413 1411 1409 1407 1405 1403 1401 1399 1398 1396 1394 1392 1390 1388 1387 1385 1384 1384 1383 1383 1383 1383 1383 1384 1385 1385 1387 1388 1389 1390 1392 1393 1395 1397 1398 1400 1401 1403 1406 1408 1411 1414 1417 1420 1423 1426 1430 1432 1435 1437 1440 1441 1443 1444 1445 1446
1445 1445 1444 1444 1443 1442 1441 1441 1440 1439 1439 1439 1438 1437 1437 1436 1435 1434 1433 1432 1430 1429 1428 1427 1426 1425 1422 1420 1419 1417 1414 1412 1411 1409 1407 1405 1404 1402 1401 1399 1397 1395 1394 1393 1391 1391 1390 1390 1390 1390 1390 1390 1391 1392 1392 1393 1395 1396 1397 1398 1399 1401 1402 1403 1404 1405 1407 1409 1412 1415 1418 1421 1424 1427 1430 1433 1435 1438 1440 1442 1443 1445 1446 1447 1448
1446 1445 1445 1444 1443 1442 1441 1441 1440 1439 1439 1439 1438 1438 1437 1436 1436 1435 1434 1432 1431 1429 1428 1427 1426 1425 1424 1422 1421 1419 1417 1416 1414 1412 1410 1409 1407 1406 1405 1404 1402 1401 1400 1398 1397 1397 1396 1396 1396 1396 1396 1397 1397 1398 1398 1400 1401 1402 1403 1404 1405 1406 1407 1408 1409 1411 1412 1414 1417 1420 1422 1425 1428 1431 1433 1435 1438 1440 1442 1444 1445 1446 1447 1448 1450